Mullan Pass, ID

2:21 AM PDT on October 15, 2019 (GMT -0700)
Mullan Pass

Weather History for KMLP - August, 2019

Change the Weather History Date:

Thursday, August 22, 2019

  Actual Average (K3TH) Record (K3TH)
Temperature  
Mean Temperature 50 °F -  
Max Temperature 53 °F 83 °F 95 °F (1997)
Min Temperature 48 °F 52 °F 45 °F (1996)
Degree Days  
Heating Degree Days 14    
Moisture  
Dew Point 49 °F    
Average Humidity 93    
Maximum Humidity 100    
Minimum Humidity 69    
Precipitation  
Precipitation 0.27 in - - ()
Sea Level Pressure  
Sea Level Pressure 29.98 in    
Wind  
Wind Speed 3 mph (NW)    
Max Wind Speed 7 mph    
Max Gust Speed -    
Visibility 3 miles    
Events Fog , Rain    
Averages and records for this station are not official NWS values.
T = Trace of Precipitation, MM = Missing Value Source: NWS Daily Summary

Daily Weather History Graph

Daily Weather History Graph

Search for Another Location

Airport or City:

Astronomy

Aug. 22, 2019 Rise Set
Actual Time 5:48 AM PDT 7:42 PM PDT
Civil Twilight 5:15 AM PDT 8:15 PM PDT
Nautical Twilight 4:34 AM PDT 8:55 PM PDT
Astronomical Twilight 3:49 AM PDT 9:39 PM PDT
Moon 11:05 PM PDT (8/22) 12:55 PM PDT (8/22)
Length of Visible Light 14h 59m
Length of Day
13h 54m
Waning Gibbous, 58% of the Moon is Illuminated
Aug 22
Waning Gibbous
Aug 23
Last Quarter
Aug 30
New
Sep 5
First Quarter
Sep 13
Full

Hourly Weather History & Observations

Time (PDT) Temp. Dew Point Humidity Pressure Visibility Wind Dir Wind Speed Gust Speed Precip Events Conditions
12:53 AM 53.1 °F 43.0 °F 69% 29.76 in 10.0 mi Variable 3.5 mph - N/A   Overcast
1:53 AM 51.1 °F 46.0 °F 83% 29.76 in 6.0 mi WSW 4.6 mph - 0.01 in Rain Light Rain
2:06 AM 50.0 °F 46.9 °F 89% 30.05 in 10.0 mi WSW 3.5 mph - 0.00 in Rain Light Rain
2:35 AM 50.0 °F 45.0 °F 83% 30.04 in 10.0 mi WSW 3.5 mph - 0.00 in Rain Light Rain
2:53 AM 50.0 °F 46.0 °F 86% 29.73 in 10.0 mi Calm Calm - 0.01 in Rain Light Rain
3:53 AM 50.0 °F 46.9 °F 89% 29.72 in 10.0 mi Calm Calm - 0.00 in   Overcast
4:49 AM 50.0 °F 46.4 °F 87% 30.02 in 10.0 mi Calm Calm - N/A   Overcast
4:53 AM 50.0 °F 46.9 °F 89% 29.73 in 10.0 mi Calm Calm - N/A   Overcast
5:15 AM 50.0 °F 46.9 °F 89% 30.02 in 10.0 mi Calm Calm - 0.00 in Rain Light Rain
5:47 AM 50.0 °F 48.2 °F 94% 30.01 in 2.0 mi Calm Calm - 0.02 in Rain Light Rain
5:51 AM 48.2 °F 48.2 °F 100% 30.01 in 1.2 mi Calm Calm - 0.02 in Rain Light Rain
5:53 AM 48.9 °F 48.0 °F 97% 29.75 in 1.2 mi Calm Calm - 0.02 in Rain Light Rain
6:02 AM 48.9 °F 48.0 °F 97% 30.01 in 2.0 mi Calm Calm - 0.00 in   Overcast
6:17 AM 50.0 °F 46.9 °F 89% 30.01 in 9.0 mi Calm Calm - 0.00 in Rain Light Rain
6:32 AM 50.0 °F 48.0 °F 93% 30.01 in 1.2 mi Calm Calm - 0.00 in Rain Light Rain
6:42 AM 50.0 °F 48.0 °F 93% 30.02 in 0.5 mi Calm Calm - 0.00 in Fog , Rain Light Rain
6:50 AM 48.2 °F 48.2 °F 100% 30.02 in 0.2 mi Calm Calm - 0.00 in Fog , Rain Light Rain
6:53 AM 48.9 °F 48.0 °F 97% 29.76 in 0.2 mi Calm Calm - 0.01 in Fog , Rain Light Rain
7:10 AM 48.9 °F 48.0 °F 97% 30.02 in 0.5 mi Calm Calm - 0.03 in Fog , Rain Rain
7:17 AM 48.9 °F 48.0 °F 97% 30.02 in 0.2 mi NW 4.6 mph - 0.04 in Fog , Rain Light Rain
7:25 AM 48.9 °F 46.9 °F 93% 30.03 in 0.2 mi Calm Calm - 0.05 in Fog , Rain Light Rain
7:53 AM 48.9 °F 48.0 °F 97% 29.78 in 0.2 mi Calm Calm - 0.06 in Fog , Rain Light Rain
8:53 AM 50.0 °F 48.0 °F 93% 29.80 in 0.2 mi Variable 3.5 mph - 0.01 in Fog Fog
10:14 AM 50.0 °F 48.9 °F 96% 30.05 in 0.2 mi Variable 3.5 mph - N/A Fog Fog
10:35 AM 50.0 °F 48.9 °F 96% 30.05 in 0.2 mi Calm Calm - N/A Fog , Rain Light Rain
10:53 AM 50.0 °F 48.0 °F 93% 29.82 in 0.2 mi Calm Calm - N/A Fog , Rain Rain
11:24 AM 52.0 °F 51.1 °F 97% 30.05 in 1.0 mi Calm Calm - 0.03 in Rain Light Rain
11:30 AM 51.1 °F 50.0 °F 96% 30.05 in 0.2 mi NNW 4.6 mph - 0.10 in Fog , Rain Heavy Rain
11:40 AM 50.0 °F 48.9 °F 96% 30.05 in 0.2 mi Calm Calm - 0.12 in Fog , Rain Rain
11:53 AM 51.1 °F 48.9 °F 92% 29.82 in 0.2 mi Variable 4.6 mph - 0.14 in Fog , Rain Light Rain
12:53 PM 51.1 °F 48.9 °F 92% 29.84 in 0.2 mi Variable 5.8 mph - 0.00 in Fog , Rain Light Rain
1:53 PM 50.0 °F 48.9 °F 96% 29.86 in 0.2 mi Variable 5.8 mph - 0.00 in Fog , Rain Light Rain
2:53 PM 52.0 °F 50.0 °F 93% 29.86 in 0.2 mi Variable 4.6 mph - 0.01 in Fog Fog
3:53 PM 52.0 °F 50.0 °F 93% 29.87 in 0.8 mi Variable 5.8 mph - N/A   Mist
4:34 PM 51.1 °F 50.0 °F 96% 30.09 in 0.2 mi Calm Calm - N/A Fog Fog
4:53 PM 51.1 °F 50.0 °F 96% 29.88 in 0.2 mi Variable 4.6 mph - N/A Fog Fog
5:03 PM 53.1 °F 51.1 °F 93% 30.09 in 1.2 mi Variable 3.5 mph - N/A   Overcast
5:05 PM 53.1 °F 51.1 °F 93% 30.09 in 2.0 mi Variable 4.6 mph - N/A   Overcast
5:09 PM 52.0 °F 50.0 °F 93% 30.09 in 0.8 mi Variable 4.6 mph - N/A   Mist
5:38 PM 52.0 °F 50.0 °F 93% 30.10 in 1.5 mi Variable 3.5 mph - N/A   Overcast
5:41 PM 52.0 °F 50.0 °F 93% 30.10 in 3.0 mi Variable 3.5 mph - N/A   Overcast
5:46 PM 52.0 °F 51.1 °F 97% 30.10 in 1.5 mi NW 4.6 mph - N/A   Overcast
5:53 PM 52.0 °F 50.0 °F 93% 29.88 in 1.2 mi Variable 3.5 mph - N/A   Overcast
6:11 PM 52.0 °F 51.1 °F 97% 30.10 in 2.0 mi Calm Calm - N/A   Overcast
6:21 PM 52.0 °F 51.1 °F 97% 30.10 in 6.0 mi Variable 4.6 mph - N/A   Overcast
6:48 PM 51.8 °F 50.0 °F 94% 30.11 in 7.0 mi Variable 4.6 mph - N/A   Mostly Cloudy
6:53 PM 51.1 °F 48.9 °F 92% 29.90 in 8.0 mi NNW 3.5 mph - N/A   Mostly Cloudy
7:09 PM 51.1 °F 48.9 °F 92% 30.11 in 7.0 mi Variable 4.6 mph - N/A   Scattered Clouds
7:22 PM 50.0 °F 48.9 °F 96% 30.11 in 1.5 mi NNW 4.6 mph - N/A   Mostly Cloudy
7:26 PM 50.0 °F 48.9 °F 96% 30.11 in 0.8 mi NNW 4.6 mph - N/A   Mostly Cloudy
7:30 PM 50.0 °F 48.9 °F 96% 30.11 in 0.2 mi NNW 4.6 mph - N/A Fog Fog
7:38 PM 50.0 °F 48.9 °F 96% 30.12 in 0.2 mi NW 4.6 mph - N/A Fog Fog
7:53 PM 50.0 °F 48.9 °F 96% 29.91 in 0.2 mi NW 4.6 mph - N/A Fog Fog
8:38 PM 50.0 °F 48.9 °F 96% 30.13 in 0.5 mi WNW 5.8 mph - N/A Fog Fog
8:46 PM 50.0 °F 48.9 °F 96% 30.13 in 1.2 mi NW 4.6 mph - N/A   Scattered Clouds
8:53 PM 50.0 °F 48.9 °F 96% 29.93 in 0.8 mi NW 5.8 mph - N/A   Mist
9:02 PM 50.0 °F 48.0 °F 93% 30.13 in 1.2 mi NW 5.8 mph - N/A   Partly Cloudy
9:05 PM 50.0 °F 48.0 °F 93% 30.13 in 2.0 mi NW 5.8 mph - N/A   Partly Cloudy
9:13 PM 50.0 °F 48.0 °F 93% 30.13 in 6.0 mi WNW 6.9 mph - N/A   Partly Cloudy
9:53 PM 50.0 °F 48.0 °F 93% 29.93 in 4.0 mi NNW 5.8 mph - N/A   Partly Cloudy
10:53 PM 48.9 °F 48.0 °F 97% 29.93 in 10.0 mi WNW 6.9 mph - N/A   Scattered Clouds
11:53 PM 50.0 °F 48.0 °F 93% 29.91 in 10.0 mi NW 4.6 mph - N/A   Clear